Huntington, WV

3:53 PM EST on December 05, 2019 (GMT -0500)
Tri-State / Ferguson

Weather History for KHTS - October, 2019

Change the Weather History Date:

Tuesday, October 1, 2019

  Actual Average Record
Temperature  
Mean Temperature 82 °F 62 °F  
Max Temperature 95 °F 73 °F 95 °F (2019)
Min Temperature 70 °F 50 °F 30 °F (1947)
Degree Days  
Heating Degree Days 0 5  
Month to date heating degree days 5  
Since 1 July heating degree days 63  
Cooling Degree Days 18 2  
Month to date cooling degree days 2  
Year to date cooling degree days 1113  
Growing Degree Days 32 (Base 50)    
Moisture  
Dew Point 66 °F    
Average Humidity 63    
Maximum Humidity 90    
Minimum Humidity 27    
Precipitation  
Precipitation 0.00 in 0.08 in 2.48 in (1915)
Month to date precipitation 0.08  
Year to date precipitation 33.11  
Snow  
Snow 0.00 in 0.00 in 0.00 in (2016)
Month to date snowfall 0.0  
Since 1 September snowfall 0.0  
Snow Depth -    
Sea Level Pressure  
Sea Level Pressure 30.04 in    
Wind  
Wind Speed 3 mph (WSW)    
Max Wind Speed 10 mph    
Max Gust Speed 22 mph    
Visibility 10 miles    
Events      
T = Trace of Precipitation, MM = Missing Value Source: NWS Daily Summary

Daily Weather History Graph

Daily Weather History Graph

Search for Another Location

Airport or City:

Astronomy

Oct. 01, 2019 Rise Set
Actual Time 7:25 AM EDT 7:13 PM EDT
Civil Twilight 6:59 AM EDT 7:39 PM EDT
Nautical Twilight 6:28 AM EDT 8:10 PM EDT
Astronomical Twilight 5:57 AM EDT 8:41 PM EDT
Moon 10:38 AM EDT (10/1) 9:28 PM EDT (10/1)
Length of Visible Light 12h 40m
Length of Day
11h 47m
Waxing Crescent, 12% of the Moon is Illuminated
Oct 1
Waxing Crescent
Oct 5
First Quarter
Oct 13
Full
Oct 21
Last Quarter
Oct 27
New

Hourly Weather History & Observations

Time (EDT) Temp. Heat Index Dew Point Humidity Pressure Visibility Wind Dir Wind Speed Gust Speed Precip Events Conditions
12:51 AM 72.0 °F - 68.0 °F 87% 30.04 in 10.0 mi Calm Calm - N/A   Clear
1:51 AM 71.1 °F - 68.0 °F 90% 30.04 in 10.0 mi East 4.6 mph - N/A   Clear
2:51 AM 72.0 °F - 68.0 °F 87% 30.04 in 10.0 mi Calm Calm - N/A   Overcast
3:51 AM 71.1 °F - 68.0 °F 90% 30.04 in 10.0 mi Calm Calm - N/A   Mostly Cloudy
4:51 AM 71.1 °F - 66.9 °F 87% 30.05 in 10.0 mi Calm Calm - N/A   Scattered Clouds
5:51 AM 72.0 °F - 66.9 °F 84% 30.06 in 10.0 mi SW 4.6 mph - N/A   Overcast
6:51 AM 71.1 °F - 66.9 °F 87% 30.07 in 10.0 mi Calm Calm - N/A   Mostly Cloudy
7:51 AM 70.0 °F - 66.9 °F 90% 30.09 in 7.0 mi SW 3.5 mph - N/A   Partly Cloudy
8:51 AM 72.0 °F - 66.9 °F 84% 30.10 in 9.0 mi SSW 4.6 mph - N/A   Clear
9:51 AM 79.0 °F - 69.1 °F 72% 30.10 in 10.0 mi Calm Calm - N/A   Clear
10:51 AM 86.0 °F 89.4 °F 68.0 °F 55% 30.09 in 10.0 mi Calm Calm - N/A   Clear
11:51 AM 89.1 °F 93.7 °F 69.1 °F 52% 30.07 in 10.0 mi Variable 3.5 mph - N/A   Clear
12:51 PM 91.9 °F 95.4 °F 66.9 °F 44% 30.06 in 10.0 mi Variable 4.6 mph - N/A   Partly Cloudy
1:51 PM 93.9 °F 96.1 °F 64.9 °F 38% 30.04 in 10.0 mi West 5.8 mph - N/A   Scattered Clouds
2:51 PM 93.9 °F 95.6 °F 64.0 °F 37% 30.03 in 10.0 mi West 9.2 mph - N/A   Clear
3:51 PM 95.0 °F 96.0 °F 63.0 °F 34% 30.02 in 10.0 mi West 10.4 mph 21.9 mph N/A   Clear
4:51 PM 93.9 °F 95.6 °F 64.0 °F 37% 30.00 in 10.0 mi West 8.1 mph - N/A   Clear
5:51 PM 91.9 °F 92.9 °F 63.0 °F 38% 30.00 in 10.0 mi WSW 8.1 mph - N/A   Clear
6:51 PM 89.1 °F 90.3 °F 64.0 °F 43% 29.99 in 10.0 mi WSW 4.6 mph - N/A   Clear
7:51 PM 86.0 °F 87.6 °F 64.9 °F 49% 29.99 in 10.0 mi Calm Calm - N/A   Clear
8:51 PM 80.1 °F 82.1 °F 66.0 °F 62% 29.99 in 10.0 mi Calm Calm - N/A   Clear
9:51 PM 78.1 °F - 66.9 °F 68% 29.99 in 10.0 mi Calm Calm - N/A   Clear
10:51 PM 75.0 °F - 66.9 °F 76% 29.97 in 10.0 mi Calm Calm - N/A   Clear
11:51 PM 73.0 °F - 66.9 °F 81% 29.97 in 10.0 mi Calm Calm - N/A   Clear